STARLINK-34252, 64330

Orbit data source: Space-Track

STARLINK-34252, 64330 is a payload satellite owned by SpaceX/Seattle (US) in LEO that was launched on Tue, 10 Jun 2025 UTC via an FALCON 9 launch vehicle from the Air Force Eastern Test Range (AFETR). Payload-class satellites include a variety of spacecraft equipped with specific instruments for various scientific and technological missions. These include communications satellites like Starlink; space stations such as the ISS; scientific satellites like the Hubble; Earth observation satellites from companies like Planet Labs, Umbra, and HawkEye 360; GPS; miniature CubeSats for education and research; and military/defense satellites.

Loading next visibility...
Identifier
64330, 2025-124P
Orbit
LEO
Country
Flag of USUS
Related business
Manufacturer
SpaceX/Seattle
Mission
Operational Commercial Communications
Bus & Motor
STARLINK V2MO, Unknown motor
Mass
575 kg wet, ~530 kg dry
Launch date (UTC)
2025-06-10 (11 months ago)
Launch vehicle
FALCON 9
Launch site
Air Force Eastern Test Range (AFETR)
Object type
Payload
Rocket body
Debris
Shape & HBR
Box + 2 Pan, 17.7 m
Radar Cross Section
36.964 m², Large (>1 m²)

Expand to show TLE details & history
Last TLE update: 8 hours ago

TLE from 8 hours ago
0 STARLINK-34252
1 64330U 25124P   26119.92155251  .00025507  00000-0  93284-3 0  9997
2 64330  43.0029 192.5613 0001677 273.2366  86.8294 15.27593562 49615
Epoch: 2026-04-29T22:07Z
TLE epoch observation values (Epoch: 2026-04-29T22:07:02.136Z)
Latitude
-0.00002°
Longitude
2.9268°
Altitude
482.721 km
Speed
7.626 km/s
True Right ascension
12h 50m 14s
True Declination
0° 00' 00"
Sunlit
Object was in full shadow at epoch
Visualization orbit readout
Latitude
Unknown
Longitude
Unknown
Altitude
Unknown
Speed
Unknown
Apparent Right ascension
Unknown
Apparent Declination
Unknown
Sunlit
N/A
Visualization observer readout
Local Sidereal Time
13:38:51
Azimuth
Unknown
Elevation
Unknown
Doppler factor
Unknown
Orbital elements
Apogee altitude
486.104 km
Perigee altitude
483.802 km
Semi-major axis
6,863.09 km
Eccentricity
0.00017
Inclination
43.0029°
RAAN
192.5613°
Arg. of periapsis
273.2366°
True anomaly
86.84859°
Mean anomaly
86.8294°
Eccentric anomaly
86.83899°
Mean motion
3.81736 °/min
Orbital period
94.31 mins
BSTAR
0.00093284
Loading maneuver chart data...
Computing Atmospheric mass density...
Loading historical data...
Loading historical data...
Loading historical data...
Loading historical data...
Loading historical data...
Loading historical data...
Loading historical data...

Documentation

Showing up to 5 results
|